Total_Precipitation_Accumulation
1.26 1.43 1.40 1.11 1.00 0.86 0.74 0.72 0.56 0.41 0.39 0.45 0.45 0.43 0.37 0.33 0.35 0.33 0.30 0.35 0.44 0.46 0.49 0.60 0.69 0.83 0.94 1.02 1.14 1.32 1.52 1.63 1.68 1.74 1.72 1.67 1.82 1.93 1.83 1.73 1.87 2.06 2.20 2.32
1.37 1.12 0.70 0.60 0.64 0.76 0.80 0.79 0.60 0.43 0.43 0.52 0.51 0.47 0.38 0.32 0.34 0.31 0.29 0.33 0.42 0.46 0.51 0.58 0.66 0.80 0.89 1.01 1.08 1.26 1.49 1.59 1.58 1.56 1.63 1.64 1.67 1.75 1.83 1.79 1.80 1.91 2.12 2.32
1.08 0.68 0.48 0.63 0.72 0.86 0.83 0.70 0.56 0.55 0.55 0.63 0.68 0.65 0.40 0.32 0.32 0.32 0.34 0.36 0.44 0.47 0.52 0.56 0.63 0.74 0.86 1.01 1.07 1.11 1.35 1.63 1.65 1.63 1.74 1.79 1.89 1.92 1.90 1.80 1.77 1.85 1.96 2.09
0.85 0.50 0.54 0.73 0.76 0.80 0.79 0.45 0.47 0.60 0.81 0.85 0.75 0.93 0.50 0.34 0.33 0.32 0.37 0.43 0.46 0.49 0.52 0.58 0.64 0.75 0.83 0.99 1.17 1.19 1.26 1.51 1.73 1.72 1.71 1.70 1.77 1.77 1.77 1.70 1.62 1.73 1.93 2.03
0.94 0.54 0.58 0.75 0.61 0.61 0.62 0.42 0.51 0.70 0.93 0.95 0.73 0.92 0.58 0.35 0.38 0.32 0.31 0.37 0.42 0.46 0.54 0.61 0.67 0.78 0.90 1.04 1.23 1.33 1.37 1.40 1.61 1.68 1.62 1.60 1.61 1.65 1.75 1.75 1.68 1.63 1.78 1.99
0.73 0.55 0.60 0.56 0.45 0.51 0.59 0.68 0.84 0.99 1.34 1.39 0.59 0.62 0.61 0.50 0.50 0.39 0.33 0.37 0.40 0.48 0.59 0.63 0.71 0.84 0.99 1.12 1.29 1.40 1.47 1.39 1.45 1.68 1.66 1.54 1.50 1.52 1.62 1.72 1.79 1.77 1.72 1.79
0.97 0.74 0.65 0.56 0.68 0.80 0.94 1.37 2.05 2.15 1.98 1.12 0.33 0.40 0.57 0.47 0.46 0.42 0.40 0.43 0.42 0.47 0.58 0.65 0.73 0.87 0.96 1.07 1.21 1.35 1.40 1.41 1.41 1.56 1.66 1.56 1.46 1.46 1.45 1.52 1.63 1.71 1.72 1.68
1.18 1.02 0.73 0.62 0.79 1.01 0.98 1.20 1.62 1.55 0.98 0.47 0.27 0.41 0.48 0.40 0.34 0.34 0.36 0.41 0.41 0.42 0.49 0.59 0.68 0.80 0.91 0.94 1.06 1.21 1.31 1.31 1.36 1.49 1.66 1.68 1.54 1.52 1.41 1.41 1.50 1.58 1.59 1.55
1.16 0.83 0.51 0.46 0.47 0.64 0.90 0.92 0.84 1.18 0.78 0.51 0.41 0.37 0.38 0.28 0.24 0.28 0.31 0.35 0.40 0.41 0.47 0.53 0.63 0.68 0.74 0.85 0.94 1.05 1.23 1.33 1.34 1.38 1.57 1.77 1.76 1.62 1.50 1.38 1.42 1.49 1.51 1.52
1.24 1.00 0.49 0.47 0.64 0.71 0.78 0.87 1.08 1.52 1.25 0.72 0.42 0.37 0.50 0.40 0.35 0.31 0.32 0.34 0.35 0.39 0.49 0.54 0.58 0.61 0.66 0.77 0.85 0.94 1.12 1.27 1.33 1.33 1.40 1.60 1.83 1.77 1.67 1.62 1.46 1.43 1.44 1.47
1.09 1.25 0.79 0.65 0.88 0.86 0.83 1.06 1.30 1.40 1.10 0.91 0.59 0.51 0.55 0.47 0.40 0.36 0.34 0.31 0.33 0.36 0.45 0.49 0.52 0.59 0.65 0.72 0.83 0.93 1.04 1.15 1.22 1.24 1.29 1.38 1.60 1.78 1.79 1.74 1.60 1.44 1.42 1.39
1.06 1.39 1.01 0.60 0.53 0.55 0.73 0.90 1.14 1.49 1.11 0.74 0.69 0.58 0.39 0.33 0.33 0.32 0.31 0.30 0.31 0.36 0.39 0.44 0.48 0.57 0.62 0.69 0.80 0.87 0.95 1.09 1.17 1.20 1.24 1.31 1.38 1.54 1.75 1.70 1.56 1.40 1.36 1.37
1.64 2.01 1.58 1.06 0.85 0.75 0.86 0.81 0.88 1.10 1.19 0.86 0.75 0.57 0.32 0.24 0.26 0.27 0.28 0.29 0.32 0.36 0.38 0.42 0.50 0.52 0.58 0.68 0.75 0.79 0.86 0.99 1.11 1.19 1.23 1.22 1.27 1.35 1.46 1.58 1.52 1.40 1.33 1.32
2.00 2.13 1.47 1.16 0.94 0.89 0.84 0.63 0.66 1.08 1.40 0.83 0.50 0.42 0.30 0.28 0.30 0.29 0.30 0.30 0.32 0.35 0.38 0.40 0.47 0.51 0.55 0.63 0.73 0.75 0.84 0.95 0.99 1.09 1.14 1.14 1.14 1.18 1.23 1.33 1.50 1.48 1.39 1.30
1.71 1.71 0.81 0.49 0.39 0.47 0.53 0.47 0.48 0.74 0.78 0.69 0.42 0.36 0.38 0.37 0.36 0.37 0.36 0.36 0.34 0.33 0.36 0.40 0.46 0.51 0.56 0.64 0.73 0.78 0.82 0.84 0.87 0.98 1.04 1.09 1.13 1.20 1.23 1.20 1.31 1.47 1.42 1.27
1.49 1.46 0.73 0.43 0.30 0.36 0.42 0.33 0.37 0.43 0.44 0.42 0.32 0.33 0.35 0.33 0.29 0.30 0.34 0.37 0.38 0.39 0.40 0.41 0.47 0.50 0.57 0.65 0.75 0.87 0.87 0.86 0.81 0.88 0.97 1.03 1.13 1.27 1.28 1.22 1.25 1.37 1.44 1.36
1.42 1.45 1.23 0.67 0.33 0.57 0.63 0.43 0.42 0.44 0.43 0.46 0.51 0.44 0.34 0.33 0.33 0.38 0.42 0.45 0.45 0.45 0.45 0.45 0.49 0.54 0.62 0.67 0.76 0.88 0.90 0.89 0.86 0.86 0.91 0.97 1.03 1.20 1.27 1.25 1.31 1.36 1.42 1.48
1.14 1.37 1.72 1.13 0.80 1.09 0.56 0.30 0.33 0.39 0.45 0.49 0.47 0.39 0.37 0.40 0.37 0.37 0.43 0.51 0.51 0.48 0.47 0.47 0.52 0.57 0.60 0.66 0.71 0.79 0.84 0.86 0.90 0.91 0.93 0.98 0.99 1.04 1.19 1.30 1.33 1.35 1.38 1.41
0.69 1.32 2.03 1.69 1.20 0.66 0.31 0.25 0.33 0.45 0.51 0.43 0.39 0.36 0.33 0.31 0.28 0.29 0.31 0.39 0.49 0.50 0.50 0.52 0.56 0.59 0.61 0.62 0.66 0.76 0.82 0.83 0.92 0.99 1.00 0.97 0.94 0.97 1.08 1.19 1.31 1.35 1.37 1.33
0.71 1.29 2.20 1.92 1.47 0.71 0.41 0.25 0.23 0.38 0.63 0.38 0.35 0.38 0.34 0.34 0.43 0.35 0.29 0.36 0.46 0.45 0.48 0.53 0.55 0.53 0.58 0.61 0.64 0.74 0.82 0.80 0.90 0.97 1.02 0.93 0.84 0.83 0.86 0.98 1.18 1.30 1.32 1.27
1.12 1.75 2.10 1.62 1.32 0.59 0.38 0.26 0.28 0.60 0.69 0.37 0.35 0.39 0.39 0.45 0.51 0.39 0.35 0.39 0.44 0.42 0.45 0.47 0.49 0.50 0.59 0.65 0.64 0.71 0.79 0.85 0.89 0.96 1.02 0.93 0.83 0.82 0.83 0.91 1.09 1.23 1.32 1.31
0.88 1.22 1.24 1.18 1.37 0.75 0.37 0.38 0.61 0.70 0.40 0.32 0.30 0.31 0.33 0.32 0.29 0.28 0.31 0.37 0.40 0.37 0.37 0.39 0.43 0.48 0.56 0.62 0.66 0.72 0.79 0.85 0.93 0.98 0.96 0.96 0.92 0.87 0.89 0.93 1.06 1.21 1.30 1.37
0.68 0.88 0.92 0.87 0.76 0.50 0.40 0.50 0.53 0.45 0.36 0.29 0.30 0.28 0.27 0.26 0.26 0.29 0.33 0.35 0.38 0.36 0.36 0.37 0.41 0.45 0.52 0.59 0.66 0.77 0.83 0.83 0.90 0.95 0.97 0.97 0.97 0.94 0.95 0.99 1.08 1.20 1.28 1.33
0.44 0.48 0.65 0.62 0.41 0.33 0.35 0.38 0.38 0.33 0.31 0.27 0.27 0.26 0.24 0.24 0.24 0.28 0.32 0.32 0.34 0.35 0.36 0.37 0.40 0.43 0.51 0.58 0.62 0.73 0.81 0.79 0.79 0.85 0.93 0.94 0.97 1.01 1.04 1.07 1.10 1.18 1.28 1.35
0.39 0.46 0.59 0.55 0.34 0.30 0.28 0.29 0.30 0.25 0.23 0.22 0.23 0.24 0.24 0.24 0.24 0.27 0.31 0.32 0.34 0.40 0.40 0.41 0.43 0.45 0.53 0.60 0.66 0.73 0.75 0.74 0.75 0.78 0.89 0.97 1.01 1.06 1.09 1.11 1.15 1.22 1.23 1.37
0.30 0.42 0.59 0.54 0.35 0.39 0.33 0.27 0.26 0.26 0.25 0.25 0.25 0.25 0.22 0.25 0.29 0.28 0.30 0.32 0.36 0.41 0.45 0.44 0.46 0.50 0.55 0.62 0.73 0.76 0.73 0.71 0.74 0.79 0.85 0.95 1.03 1.04 1.04 1.03 1.09 1.26 1.28 1.32